Probability
0 0 0 0 0 0 0 0 0 0 0 0 0 0 0 0 0 0 0 0 0 0 0 0 0 0 0 0 0 0 0 0 0 0 0 0 0 0
0 0 0 0 0 0 0 0 0 0 0 0 0 0 0 0 0 0 0 0 0 0 0 0 0 0 0 0 0 0 0 0 0 0 0 0 0 0
0 0 0 0 0 0 0 0 0 0 0 0 0 0 0 0 0 0 0 0 0 0 0 0 0 0 0 0 0 0 0 0 0 0 0 0 0 0
0 0 0 0 0 0 0 0 0 0 0 0 0 0 0 0 0 0 0 0 0 0 0 0 0 0 0 0 0 0 0 0 0 0 0 0 0 0
0 0 0 0 0 0 0 0 0 0 0 0 0 0 0 0 0 0 0 0 0 0 0 0 0 0 0 0 0 0 0 0 0 0 0 0 0 0
0 0 0 0 0 0 0 0 0 0 0 0 0 0 0 0 0 0 0 0 0 0 0 0 0 0 0 0 0 0 0 0 0 0 0 0 0 0
0 0 0 0 0 0 0 0 0 0 0 0 0 0 0 0 0 0 0 0 0 0 0 0 0 0 0 0 0 0 0 0 0 0 0 0 0 0
0 0 0 0 0 0 0 0 0 0 0 0 0 0 0 0 0 0 0 0 0 0 0 0 0 0 0 0 0 0 0 0 0 0 0 0 0 0
0 0 0 0 0 0 0 0 0 0 0 0 0 0 0 0 0 0 0 0 0 0 0 0 0 0 0 0 0 0 0 0 0 0 0 0 0 0
0 0 0 0 0 0 0 0 0 0 0 0 0 0 0 0 0 0 0 0 0 0 0 0 0 0 0 0 0 0 0 0 0 0 0 0 0 0
0 0 0 0 0 0 0 0 0 0 0 0 0 0 0 0 0 0 0 0 0 0 0 0 0 0 0 0 0 0 0 0 0 0 0 0 0 0
0 0 0 0 0 0 0 0 0 0 0 0 0 0 0 0 0 0 0 0 0 0 0 0 0 0 0 0 0 0 0 0 0 0 0 0 0 0
0 0 0 0 0 0 0 0 0 0 0 0 0 0 0 0 0 0 0 0 0 0 0 0 0 0 0 0 0 0 0 0 0 0 0 0 0 0
0 0 0 0 0 0 0 0 0 0 0 0 0 0 0 0 0 0 0 0 0 0 0 0 0 0 0 0 0 0 0 0 0 0 0 0 0 0
0 0 0 0 0 0 0 0 0 0 0 0 0 0 0 0 0 0 0 0 0 0 0 0 0 0 0 0 0 0 0 0 0 0 0 0 0 0
0 0 0 0 0 0 0 0 0 0 0 0 0 0 0 0 0 0 0 0 0 0 0 0 0 0 0 0 0 0 0 0 0 0 0 0 0 0
0 0 0 0 0 0 0 0 0 0 0 0 0 0 0 0 0 0 0 0 0 0 0 0 0 0 0 0 0 0 0 0 0 0 0 0 0 0
0 0 0 0 0 0 0 0 0 0 0 0 0 0 0 0 0 0 0 0 0 0 0 0 0 0 0 0 0 0 0 0 0 0 0 0 0 0
0 0 0 0 0 0 0 0 0 0 0 0 0 0 0 0 0 0 0 0 0 0 0 0 0 0 0 0 0 0 0 0 0 0 0 0 0 0
0 0 0 0 0 0 0 0 0 0 0 0 0 0 0 0 0 0 0 0 0 0 0 0 0 0 0 0 0 0 0 0 0 0 0 0 0 0
0 0 0 0 0 0 0 0 0 0 0 0 0 0 0 0 0 0 0 0 0 0 0 0 0 0 0 0 0 0 0 0 0 0 0 0 0 0
0 0 0 0 0 0 0 0 0 0 0 0 0 0 0 0 0 0 0 0 0 0 0 0 0 0 0 0 0 0 0 0 0 0 0 0 0 0
0 0 0 0 0 0 0 0 0 0 0 0 0 0 0 0 0 0 0 0 0 0 0 0 0 0 0 0 0 0 0 0 0 0 0 0 0 0
Height
5872 5872 5872 5871 5871 5870 5870 5869 5869 5867 5867 5865 5864 5863 5862 5861 5860 5859 5858 5857 5856 5855 5854 5853 5852 5851 5850 5849 5849 5848 5848 5848 5848 5848 5848 5848 5849 5849
5868 5868 5868 5867 5867 5866 5866 5865 5864 5864 5862 5861 5860 5859 5858 5857 5856 5855 5853 5852 5851 5850 5849 5848 5847 5846 5845 5844 5843 5842 5842 5841 5841 5841 5841 5841 5841 5842
5864 5863 5863 5863 5862 5861 5861 5860 5859 5858 5858 5857 5855 5854 5853 5852 5850 5849 5848 5847 5845 5844 5843 5842 5841 5840 5839 5838 5837 5836 5835 5834 5834 5833 5833 5833 5833 5834
5858 5858 5857 5857 5856 5856 5855 5854 5853 5852 5852 5851 5849 5848 5847 5846 5844 5843 5841 5840 5839 5837 5836 5835 5834 5832 5832 5831 5830 5829 5828 5827 5826 5826 5825 5825 5825 5825
5852 5851 5851 5850 5849 5849 5848 5847 5846 5845 5844 5843 5842 5841 5840 5838 5837 5836 5834 5833 5831 5830 5828 5827 5826 5825 5824 5823 5822 5821 5820 5819 5818 5817 5817 5816 5816 5816
5845 5844 5844 5843 5842 5841 5841 5840 5839 5837 5836 5835 5833 5832 5831 5830 5829 5827 5826 5824 5823 5821 5820 5818 5817 5816 5814 5813 5813 5812 5811 5810 5809 5808 5807 5807 5807 5807
5837 5836 5835 5834 5834 5833 5832 5831 5830 5828 5827 5826 5824 5823 5822 5820 5819 5818 5817 5815 5814 5811 5810 5809 5807 5806 5804 5803 5802 5801 5800 5800 5799 5798 5797 5797 5797 5796
5829 5828 5827 5825 5824 5823 5822 5821 5820 5818 5817 5816 5815 5814 5812 5810 5808 5807 5806 5805 5804 5802 5799 5798 5796 5795 5794 5792 5791 5790 5789 5788 5788 5787 5786 5786 5786 5785
5819 5818 5817 5816 5814 5812 5811 5810 5809 5808 5807 5805 5804 5802 5801 5799 5797 5796 5794 5793 5791 5789 5787 5787 5784 5783 5781 5780 5779 5778 5777 5776 5775 5775 5774 5774 5774 5773
5809 5807 5806 5805 5803 5802 5801 5799 5798 5796 5794 5793 5792 5790 5788 5786 5784 5783 5781 5780 5779 5777 5774 5774 5772 5770 5769 5767 5766 5764 5763 5762 5762 5761 5761 5761 5761 5761
5798 5797 5795 5794 5792 5790 5789 5788 5786 5784 5782 5780 5779 5777 5775 5773 5770 5769 5768 5766 5766 5765 5761 5759 5758 5756 5755 5754 5752 5750 5749 5748 5748 5747 5747 5747 5747 5747
5787 5785 5784 5782 5780 5778 5777 5775 5774 5772 5769 5767 5765 5764 5761 5759 5756 5755 5753 5751 5750 5750 5747 5744 5743 5740 5741 5740 5737 5735 5733 5732 5732 5732 5732 5732 5731 5732
5775 5773 5771 5769 5767 5765 5763 5762 5760 5758 5756 5754 5752 5750 5747 5745 5742 5740 5738 5736 5734 5733 5731 5728 5727 5725 5723 5724 5723 5720 5717 5715 5715 5715 5715 5715 5715 5716
5762 5760 5758 5757 5754 5752 5750 5748 5746 5744 5742 5740 5738 5736 5733 5730 5728 5725 5722 5720 5718 5716 5714 5711 5710 5707 5706 5705 5705 5704 5701 5698 5697 5698 5698 5698 5698 5699
5749 5747 5745 5743 5741 5738 5736 5734 5732 5729 5727 5725 5723 5720 5718 5715 5712 5710 5707 5703 5701 5699 5696 5693 5691 5689 5687 5686 5685 5685 5683 5682 5679 5679 5679 5680 5680 5681
5736 5733 5731 5728 5726 5723 5721 5718 5716 5713 5711 5709 5707 5704 5701 5699 5696 5692 5689 5686 5684 5682 5678 5674 5671 5669 5667 5666 5665 5665 5663 5662 5662 5660 5660 5661 5662 5663
5721 5719 5716 5714 5711 5708 5705 5702 5700 5697 5695 5692 5689 5687 5684 5681 5678 5674 5670 5667 5665 5663 5660 5655 5651 5647 5646 5645 5645 5645 5643 5643 5642 5641 5640 5642 5644 5645
5706 5703 5700 5698 5695 5693 5690 5686 5683 5680 5677 5674 5672 5669 5666 5662 5659 5655 5651 5648 5645 5642 5639 5635 5631 5628 5627 5626 5626 5624 5624 5623 5623 5622 5621 5623 5626 5627
5691 5687 5684 5681 5678 5676 5673 5670 5667 5663 5660 5657 5654 5650 5647 5644 5640 5637 5633 5629 5626 5623 5619 5615 5611 5608 5606 5607 5608 5605 5604 5604 5603 5604 5604 5605 5608 5610
5675 5671 5668 5665 5661 5658 5655 5652 5649 5645 5642 5639 5635 5632 5628 5625 5622 5618 5615 5611 5607 5604 5601 5597 5593 5589 5587 5587 5589 5589 5586 5585 5585 5586 5587 5588 5590 5593
5659 5655 5651 5648 5644 5641 5637 5634 5631 5627 5624 5621 5618 5615 5611 5608 5605 5601 5597 5594 5590 5587 5584 5581 5577 5573 5570 5570 5571 5572 5571 5569 5569 5570 5571 5573 5575 5577
5643 5638 5634 5630 5627 5623 5620 5616 5613 5610 5607 5605 5602 5599 5595 5592 5589 5586 5582 5579 5575 5572 5569 5567 5563 5560 5557 5556 5556 5557 5557 5556 5555 5555 5557 5559 5560 5563
5626 5622 5618 5614 5610 5607 5604 5601 5599 5596 5593 5590 5587 5584 5581 5578 5575 5572 5569 5565 5562 5559 5556 5554 5551 5548 5546 5545 5544 5545 5545 5544 5544 5544 5545 5546 5548 5550
Wind_Speed
13 14 14 14 14 14 15 15 16 16 17 17 17 17 17 17 17 18 18 19 19 20 20 20 20 20 21 21 22 22 23 25 26 27 28 28 29 29
16 17 17 18 18 18 18 18 19 19 19 20 20 20 20 20 20 21 21 21 21 22 22 22 22 22 22 22 23 24 24 25 26 27 29 30 30 31
20 20 20 21 21 22 21 21 22 22 22 22 23 23 24 24 23 24 24 24 24 24 25 25 25 24 24 24 25 25 26 27 27 28 29 30 31 32
23 23 24 24 24 24 24 24 24 24 25 25 25 26 27 27 27 27 27 27 27 27 27 27 27 27 27 27 27 27 28 28 29 29 30 30 31 32
26 26 27 27 27 27 27 27 27 28 28 28 28 28 29 29 30 30 30 30 30 30 30 30 30 30 31 30 30 30 30 30 31 31 31 32 32 33
29 29 29 30 30 30 30 30 30 31 31 32 32 31 31 32 33 33 33 33 33 33 34 34 34 34 34 33 33 33 33 33 33 33 33 34 34 34
31 32 32 33 32 33 33 33 34 34 34 35 35 35 35 36 36 36 36 36 37 37 37 37 37 37 37 37 36 36 36 36 36 36 36 36 36 36
33 34 35 36 36 37 37 36 36 36 37 37 37 38 38 39 39 39 39 39 39 40 40 40 41 40 40 39 39 39 40 40 39 39 39 38 38 38
35 36 37 38 39 38 38 38 37 38 39 39 40 40 41 42 42 42 42 42 42 43 43 42 43 43 43 42 42 42 42 42 42 41 41 40 40 40
38 39 39 40 41 41 40 40 41 41 42 42 42 43 44 45 45 45 45 44 44 44 45 44 44 45 46 46 46 46 46 45 45 44 44 43 43 43
39 40 41 41 42 42 43 42 43 43 44 44 44 45 46 47 48 48 47 47 46 46 47 47 47 48 48 48 49 49 49 48 47 47 46 46 46 46
42 42 43 43 44 45 45 45 45 46 46 46 46 47 48 48 49 50 50 50 49 48 48 50 50 51 50 49 50 51 52 51 51 50 49 49 49 49
43 44 44 45 46 46 46 46 47 48 48 49 48 49 49 50 51 51 52 52 52 51 52 53 53 54 54 53 51 52 54 54 54 53 53 52 52 52
44 45 46 46 46 46 47 47 48 50 51 51 51 51 51 51 52 54 55 55 55 55 55 57 57 57 57 56 55 55 56 56 56 56 56 55 55 54
45 45 46 47 48 49 49 50 51 52 53 52 51 52 53 53 55 56 57 57 58 58 58 59 60 60 60 60 59 58 57 57 57 57 56 55 55 55
47 48 49 50 51 51 52 53 53 53 54 54 54 54 56 56 58 59 59 59 59 59 61 62 63 63 63 62 61 59 58 57 56 56 56 56 55 55
49 50 51 51 52 53 54 54 55 55 56 57 58 58 58 59 59 60 60 61 62 62 62 62 63 63 63 63 61 60 59 58 57 56 56 56 54 54
50 51 52 53 54 55 56 56 56 57 58 59 59 60 60 60 59 60 60 61 61 62 62 62 62 62 62 60 59 58 57 56 56 56 56 55 53 53
51 52 52 53 54 55 56 56 57 58 59 59 59 60 59 59 59 59 60 60 60 60 59 59 59 60 59 57 55 55 55 54 54 53 52 52 51 50
52 53 54 54 55 55 56 57 58 58 59 59 58 58 58 57 58 58 58 57 57 56 56 55 55 56 55 54 52 51 51 50 50 50 50 49 48 47
53 54 55 55 56 56 56 56 56 56 55 54 54 54 54 54 53 53 53 53 53 52 50 49 49 49 49 47 45 43 43 45 46 45 45 44 44 43
53 53 54 55 54 54 53 52 50 49 49 49 49 49 48 47 47 47 47 47 46 46 45 44 43 43 43 42 39 37 37 38 39 39 38 39 39 38
53 53 52 51 49 48 47 46 45 45 45 45 44 43 43 42 43 43 43 42 42 41 40 39 38 38 37 36 35 34 33 33 33 34 34 34 34 33
Wind_Direction
269 273 275 279 282 282 283 283 283 283 284 286 287 288 289 291 292 291 291 291 291 291 291 290 288 286 284 281 279 277 275 272 270 268 267 267 266 266
269 273 275 278 280 282 282 282 282 282 282 283 284 284 285 287 288 290 290 290 290 290 290 289 288 287 285 283 280 279 277 276 274 272 270 268 267 266
271 273 275 277 278 280 281 281 281 281 280 280 281 282 283 284 286 287 288 288 288 288 287 287 287 286 285 283 281 280 279 277 275 274 272 270 268 266
272 273 274 275 277 278 279 280 282 282 281 280 279 281 282 282 283 284 285 285 286 286 286 285 285 285 285 283 282 281 279 278 276 275 274 272 271 269
273 274 274 275 276 277 278 279 280 281 280 280 279 279 280 280 282 282 283 284 284 284 283 283 283 282 282 283 282 281 280 278 277 275 274 273 272 271
273 274 274 275 277 279 280 280 280 280 279 279 278 279 279 280 280 280 281 282 283 282 282 282 282 282 281 281 281 280 279 278 277 276 274 274 273 272
275 274 274 275 276 278 279 280 280 279 278 278 278 278 278 279 279 279 280 281 282 282 281 280 281 281 281 281 280 280 279 278 277 276 275 274 273 271
275 277 276 275 275 277 278 279 279 278 278 278 278 277 277 278 279 280 280 280 280 279 280 280 280 280 279 279 279 279 278 277 276 275 275 274 273 271
275 276 277 277 278 277 277 278 278 278 279 279 278 278 278 278 278 279 280 280 280 279 278 278 279 279 278 278 278 278 277 277 276 275 274 273 273 272
275 274 275 276 278 277 277 277 277 277 278 279 279 279 278 278 279 279 280 279 279 279 278 278 277 277 277 277 277 277 276 276 275 274 273 272 272 271
275 275 277 277 277 278 278 278 278 278 279 279 280 279 279 279 279 279 280 280 279 278 279 279 278 277 277 277 277 276 276 275 274 274 273 272 271 271
274 275 275 277 279 279 278 278 278 278 278 278 279 280 281 281 281 280 280 280 279 278 278 278 278 278 277 277 277 277 276 274 273 272 272 272 271 271
274 275 276 278 280 280 279 278 278 278 278 278 280 280 281 281 280 280 280 280 280 280 279 279 279 279 279 278 277 277 276 274 272 272 272 271 271 271
276 276 277 279 279 279 278 278 279 279 278 278 280 280 280 280 279 280 281 281 280 280 280 280 280 280 279 279 278 277 277 275 274 272 272 271 271 270
277 277 277 278 279 279 278 278 279 279 279 279 280 281 280 279 279 280 280 280 280 280 281 281 280 280 279 279 278 277 276 275 275 273 272 271 270 269
278 278 277 278 279 279 279 280 280 280 280 280 280 280 280 280 280 280 280 280 280 280 281 281 281 280 279 279 279 278 276 275 273 272 272 271 270 269
279 279 278 279 280 280 280 280 280 281 281 281 281 281 281 282 282 282 282 281 281 281 281 280 280 280 279 279 279 278 276 274 272 271 270 269 269 269
280 279 279 280 280 280 280 280 280 281 282 282 282 282 283 283 282 282 282 282 282 282 282 281 280 280 280 279 279 277 275 274 272 270 269 269 268 267
282 281 281 281 282 282 282 282 281 282 282 282 283 283 283 283 282 282 283 283 283 283 283 282 282 281 280 279 277 276 275 273 271 269 268 268 268 267
285 284 284 284 284 284 284 284 283 284 283 283 282 283 283 283 284 284 284 284 284 284 284 283 283 282 281 280 278 276 274 273 271 269 268 268 267 266
287 286 286 286 286 286 285 285 284 284 283 283 283 284 285 285 285 285 285 285 286 286 286 285 284 283 282 281 279 277 273 272 271 269 268 266 266 265
288 288 288 288 288 287 287 286 286 285 285 285 285 286 286 286 287 287 287 287 287 287 287 286 284 283 282 280 279 277 274 271 271 271 268 265 264 263
290 290 290 290 289 289 288 288 287 286 287 287 287 287 287 287 288 289 289 289 289 288 287 286 284 283 282 280 278 277 275 272 271 270 269 268 266 263